• In Deutschland
  • Länderverzeichnis
  • Für 7 Tage
  • Wassertemperatur
  • Satellitenkarten
  • Wetterkarte
  • Widgets
  • user-avatar
    Anmelden

    Stündliche Wetter Schortens

    Heute, 20 August, Montag

    Zeit Temperatur Niederschläge Wind Luftdruck Luftfeuchtigkeit
    00:00 +19°C° 0 mm 6 m/S 761 mmHg 85%
    01:00 +19°C° 0 mm 5 m/S 761 mmHg 86%
    02:00 +19°C° 0,1 mm 5 m/S 761 mmHg 88%
    03:00 +19°C° 0,1 mm 6 m/S 761 mmHg 90%
    04:00 +19°C° 0,1 mm 6 m/S 761 mmHg 92%
    05:00 +19°C° 0 mm 5 m/S 761 mmHg 91%
    06:00 +19°C° 0 mm 5 m/S 761 mmHg 90%
    07:00 +19°C° 0 mm 5 m/S 761 mmHg 89%
    08:00 +20°C° 0,1 mm 5 m/S 762 mmHg 86%
    09:00 +20°C° 0,1 mm 5 m/S 762 mmHg 83%
    10:00 +21°C° 0,1 mm 5 m/S 762 mmHg 81%
    11:00 +21°C° 0,1 mm 5 m/S 763 mmHg 79%
    12:00 +21°C° 0,1 mm 5 m/S 763 mmHg 77%
    13:00 +21°C° 0 mm 4 m/S 763 mmHg 77%
    14:00 +21°C° 0 mm 4 m/S 764 mmHg 75%
    15:00 +21°C° 0 mm 4 m/S 764 mmHg 73%
    16:00 +21°C° 0 mm 4 m/S 764 mmHg 72%
    17:00 +20°C° 0 mm 3 m/S 764 mmHg 74%
    18:00 +19°C° 0 mm 3 m/S 764 mmHg 77%
    19:00 +19°C° 0 mm 3 m/S 764 mmHg 79%
    20:00 +18°C° 0 mm 2 m/S 764 mmHg 81%
    21:00 +17°C° 0 mm 2 m/S 764 mmHg 83%
    22:00 +17°C° 0 mm 2 m/S 765 mmHg 84%
    23:00 +16°C° 0 mm 1 m/S 765 mmHg 86%

    Morgen, 21 August, Dienstag

    Zeit Temperatur Niederschläge Wind Luftdruck Luftfeuchtigkeit
    00:00 +16°C° 0 mm 1 m/S 765 mmHg 87%
    01:00 +15°C° 0 mm 1 m/S 765 mmHg 89%
    02:00 +15°C° 0 mm 1 m/S 765 mmHg 90%
    03:00 +15°C° 0 mm 1 m/S 765 mmHg 90%
    04:00 +14°C° 0 mm 1 m/S 765 mmHg 91%
    05:00 +15°C° 0 mm 1 m/S 765 mmHg 89%
    06:00 +16°C° 0 mm 1 m/S 765 mmHg 88%
    07:00 +16°C° 0 mm 1 m/S 766 mmHg 86%
    08:00 +19°C° 0 mm 1 m/S 766 mmHg 81%
    09:00 +19°C° 0 mm 2 m/S 766 mmHg 76%
    10:00 +21°C° 0 mm 2 m/S 766 mmHg 70%
    11:00 +23°C° 0 mm 2 m/S 766 mmHg 67%
    12:00 +24°C° 0 mm 2 m/S 765 mmHg 64%
    13:00 +25°C° 0 mm 2 m/S 765 mmHg 60%
    14:00 +25°C° 0 mm 2 m/S 765 mmHg 60%
    15:00 +25°C° 0 mm 2 m/S 764 mmHg 59%
    16:00 +26°C° 0 mm 2 m/S 764 mmHg 58%
    17:00 +25°C° 0 mm 2 m/S 764 mmHg 62%
    18:00 +24°C° 0 mm 2 m/S 764 mmHg 67%
    19:00 +22°C° 0 mm 3 m/S 763 mmHg 71%
    20:00 +21°C° 0 mm 3 m/S 763 mmHg 73%
    21:00 +20°C° 0 mm 3 m/S 764 mmHg 74%
    22:00 +19°C° 0 mm 4 m/S 764 mmHg 76%
    23:00 +19°C° 0 mm 4 m/S 763 mmHg 77%

    übermorgen, 22 August, Mittwoch

    Zeit Temperatur Niederschläge Wind Luftdruck Luftfeuchtigkeit
    00:00 +18°C° 0 mm 4 m/S 763 mmHg 79%
    01:00 +18°C° 0 mm 4 m/S 763 mmHg 80%
    02:00 +18°C° 0 mm 4 m/S 763 mmHg 81%
    03:00 +17°C° 0 mm 4 m/S 763 mmHg 82%
    04:00 +17°C° 0 mm 3 m/S 762 mmHg 83%
    05:00 +18°C° 0 mm 4 m/S 762 mmHg 83%
    06:00 +18°C° 0 mm 4 m/S 762 mmHg 82%
    07:00 +19°C° 0 mm 4 m/S 762 mmHg 82%
    08:00 +21°C° 0 mm 4 m/S 762 mmHg 76%
    09:00 +23°C° 0 mm 4 m/S 762 mmHg 70%
    10:00 +25°C° 0 mm 4 m/S 762 mmHg 64%
    11:00 +26°C° 0,1 mm 4 m/S 762 mmHg 62%
    12:00 +27°C° 0,1 mm 4 m/S 761 mmHg 60%
    13:00 +28°C° 0,1 mm 4 m/S 761 mmHg 58%
    14:00 +27°C° 0,2 mm 4 m/S 761 mmHg 61%
    15:00 +27°C° 0,2 mm 4 m/S 761 mmHg 63%
    16:00 +26°C° 0,2 mm 4 m/S 761 mmHg 65%
    17:00 +25°C° 0,1 mm 4 m/S 760 mmHg 71%
    18:00 +23°C° 0,1 mm 4 m/S 760 mmHg 76%
    19:00 +21°C° 0,1 mm 3 m/S 760 mmHg 82%
    20:00 +20°C° 0 mm 3 m/S 760 mmHg 85%
    21:00 +19°C° 0 mm 3 m/S 761 mmHg 89%
    22:00 +18°C° 0 mm 3 m/S 761 mmHg 93%
    23:00 +17°C° 0 mm 3 m/S 761 mmHg 93%

    23 August, Donnerstag

    Zeit Temperatur Niederschläge Wind Luftdruck Luftfeuchtigkeit
    00:00 +17°C° 0 mm 3 m/S 761 mmHg 94%
    01:00 +17°C° 0 mm 3 m/S 761 mmHg 94%
    02:00 +16°C° 0 mm 3 m/S 760 mmHg 94%
    03:00 +16°C° 0 mm 3 m/S 760 mmHg 95%
    04:00 +16°C° 0 mm 3 m/S 760 mmHg 95%
    05:00 +15°C° 0,3 mm 4 m/S 760 mmHg 93%
    06:00 +17°C° 0,3 mm 4 m/S 760 mmHg 92%
    07:00 +18°C° 0,3 mm 4 m/S 760 mmHg 90%
    08:00 +18°C° 0,4 mm 4 m/S 760 mmHg 89%
    09:00 +19°C° 0,4 mm 4 m/S 760 mmHg 87%
    10:00 +20°C° 0,4 mm 4 m/S 759 mmHg 86%
    11:00 +20°C° 0,2 mm 3 m/S 759 mmHg 86%
    12:00 +19°C° 0,2 mm 3 m/S 759 mmHg 87%
    13:00 +19°C° 0,2 mm 3 m/S 759 mmHg 87%
    14:00 +19°C° 0,1 mm 3 m/S 759 mmHg 85%
    15:00 +19°C° 0,1 mm 2 m/S 759 mmHg 83%
    16:00 +19°C° 0,1 mm 2 m/S 759 mmHg 81%
    17:00 +18°C° 0 mm 2 m/S 758 mmHg 81%
    18:00 +18°C° 0 mm 2 m/S 758 mmHg 80%
    19:00 +18°C° 0 mm 2 m/S 758 mmHg 80%
    20:00 +17°C° 0 mm 3 m/S 758 mmHg 83%
    21:00 +16°C° 0 mm 3 m/S 758 mmHg 87%
    22:00 +14°C° 0 mm 4 m/S 758 mmHg 90%
    23:00 +13°C° 0 mm 4 m/S 758 mmHg 89%

    24 August, Freitag

    Zeit Temperatur Niederschläge Wind Luftdruck Luftfeuchtigkeit
    00:00 +13°C° 0 mm 4 m/S 757 mmHg 88%
    01:00 +13°C° 0 mm 5 m/S 757 mmHg 88%
    02:00 +13°C° 0,2 mm 5 m/S 757 mmHg 87%
    03:00 +13°C° 0,2 mm 5 m/S 757 mmHg 86%
    04:00 +13°C° 0,2 mm 5 m/S 757 mmHg 86%
    05:00 +13°C° 0,1 mm 6 m/S 757 mmHg 84%
    06:00 +13°C° 0,1 mm 6 m/S 757 mmHg 83%
    07:00 +13°C° 0,1 mm 6 m/S 757 mmHg 81%
    08:00 +14°C° 0,1 mm 6 m/S 757 mmHg 74%
    09:00 +15°C° 0,1 mm 7 m/S 757 mmHg 68%
    10:00 +16°C° 0,1 mm 7 m/S 758 mmHg 61%
    11:00 +17°C° 0,2 mm 8 m/S 758 mmHg 60%
    12:00 +17°C° 0,2 mm 8 m/S 758 mmHg 58%
    13:00 +17°C° 0,2 mm 8 m/S 758 mmHg 57%
    14:00 +17°C° 0,2 mm 8 m/S 758 mmHg 57%
    15:00 +17°C° 0,2 mm 8 m/S 758 mmHg 57%
    16:00 +17°C° 0,2 mm 8 m/S 758 mmHg 57%
    17:00 +16°C° 0,1 mm 7 m/S 759 mmHg 61%
    18:00 +15°C° 0,1 mm 7 m/S 759 mmHg 65%
    19:00 +14°C° 0,1 mm 6 m/S 759 mmHg 69%
    20:00 +13°C° 0,1 mm 6 m/S 759 mmHg 73%
    21:00 +11°C° 0,1 mm 6 m/S 759 mmHg 76%
    22:00 +10°C° 0,1 mm 6 m/S 759 mmHg 80%
    23:00 +10°C° 0,2 mm 6 m/S 759 mmHg 80%

    25 August, Samstag

    Zeit Temperatur Niederschläge Wind Luftdruck Luftfeuchtigkeit
    00:00 +10°C° 0,2 mm 6 m/S 759 mmHg 80%
    01:00 +10°C° 0,2 mm 6 m/S 759 mmHg 80%
    02:00 +9°C° 0,2 mm 6 m/S 759 mmHg 80%
    03:00 +9°C° 0,2 mm 6 m/S 758 mmHg 81%
    04:00 +9°C° 0,2 mm 6 m/S 758 mmHg 81%
    05:00 +9°C° 0,1 mm 6 m/S 758 mmHg 79%
    06:00 +10°C° 0,1 mm 6 m/S 758 mmHg 78%
    07:00 +10°C° 0,1 mm 6 m/S 757 mmHg 76%
    08:00 +12°C° 0,2 mm 7 m/S 757 mmHg 69%
    09:00 +14°C° 0,2 mm 7 m/S 757 mmHg 62%
    10:00 +16°C° 0,2 mm 7 m/S 756 mmHg 56%
    11:00 +16°C° 0,2 mm 7 m/S 756 mmHg 58%
    12:00 +16°C° 0,2 mm 8 m/S 755 mmHg 60%
    13:00 +16°C° 0,2 mm 8 m/S 755 mmHg 61%
    14:00 +15°C° 0,4 mm 7 m/S 754 mmHg 67%
    15:00 +14°C° 0,4 mm 7 m/S 753 mmHg 72%
    16:00 +14°C° 0,4 mm 7 m/S 752 mmHg 77%
    17:00 +12°C° 1,9 mm 7 m/S 751 mmHg 81%
    18:00 +11°C° 1,9 mm 8 m/S 750 mmHg 85%
    19:00 +11°C° 1,9 mm 9 m/S 748 mmHg 90%
    20:00 +11°C° 1,2 mm 9 m/S 747 mmHg 90%
    21:00 +11°C° 1,2 mm 10 m/S 746 mmHg 90%
    22:00 +11°C° 1,2 mm 11 m/S 745 mmHg 91%
    23:00 +12°C° 0,2 mm 11 m/S 744 mmHg 89%
    Mehr zeigen